Time,TemperatureF,DewpointF,PressureIn,WindDirection,WindDirectionDegrees,WindSpeedMPH,WindSpeedGustMPH,Humidity,HourlyPrecipIn,Conditions,Clouds,dailyrainin,SolarRadiationWatts/m^2,SoftwareType,DateUTC
2013-02-06 00:00:00,41.0,34.0,30.00,WNW,287,2.0,5.0,76,0.00,,,0.00,0,Wunderground v.1.15,2013-02-06 05:00:00,
2013-02-06 00:03:00,41.0,34.0,30.00,NW,316,4.0,5.0,76,0.00,,,0.00,0,Wunderground v.1.15,2013-02-06 05:03:00,
2013-02-06 00:04:00,41.0,34.0,30.00,WNW,285,5.0,5.0,76,0.00,,,0.00,0,Wunderground v.1.15,2013-02-06 05:04:00,
2013-02-06 00:07:00,41.0,34.0,30.00,NW,313,3.0,5.0,76,0.00,,,0.00,0,Wunderground v.1.15,2013-02-06 05:07:00,
2013-02-06 00:12:00,40.9,33.9,30.00,WNW,287,1.0,7.0,76,0.00,,,0.00,0,Wunderground v.1.15,2013-02-06 05:12:00,
2013-02-06 00:17:00,40.8,33.2,30.01,WNW,300,2.0,7.0,74,0.00,,,0.00,0,Wunderground v.1.15,2013-02-06 05:17:00,
2013-02-06 00:23:00,40.8,33.2,30.01,WNW,285,4.0,5.0,74,0.00,,,0.00,0,Wunderground v.1.15,2013-02-06 05:23:00,
2013-02-06 00:28:00,40.8,32.8,30.01,WNW,302,2.0,7.0,73,0.00,,,0.00,0,Wunderground v.1.15,2013-02-06 05:28:00,
2013-02-06 00:33:00,40.7,33.1,30.01,WNW,298,4.0,4.0,74,0.00,,,0.00,0,Wunderground v.1.15,2013-02-06 05:33:00,
2013-02-06 00:40:00,40.5,33.2,30.01,WNW,293,1.0,4.0,75,0.00,,,0.00,0,Wunderground v.1.15,2013-02-06 05:40:00,
2013-02-06 00:45:00,40.4,33.1,30.02,WNW,293,3.0,3.0,75,0.00,,,0.00,0,Wunderground v.1.15,2013-02-06 05:45:00,
2013-02-06 00:50:00,40.4,32.8,30.02,WNW,292,1.0,1.0,74,0.00,,,0.00,0,Wunderground v.1.15,2013-02-06 05:50:00,
2013-02-06 00:56:00,40.3,33.3,30.02,WSW,256,3.0,3.0,76,0.00,,,0.00,0,Wunderground v.1.15,2013-02-06 05:56:00,
2013-02-06 01:02:00,40.4,32.8,30.02,WNW,285,5.0,5.0,74,0.00,,,0.00,0,Wunderground v.1.15,2013-02-06 06:02:00,
2013-02-06 01:08:00,40.6,32.6,30.02,WNW,291,1.0,1.0,73,0.00,,,0.00,0,Wunderground v.1.15,2013-02-06 06:08:00,
2013-02-06 01:13:00,40.4,32.4,30.02,WNW,285,3.0,5.0,73,0.00,,,0.00,0,Wunderground v.1.15,2013-02-06 06:13:00,
2013-02-06 01:19:00,40.4,32.4,30.03,WNW,302,2.0,2.0,73,0.00,,,0.00,0,Wunderground v.1.15,2013-02-06 06:19:00,
2013-02-06 01:24:00,40.3,32.7,30.03,WNW,295,1.0,3.0,74,0.00,,,0.00,0,Wunderground v.1.15,2013-02-06 06:24:00,
2013-02-06 01:29:00,40.2,32.9,30.03,WNW,294,0.0,0.0,75,0.00,,,0.00,0,Wunderground v.1.15,2013-02-06 06:29:00,
2013-02-06 01:35:00,40.3,32.7,30.03,WNW,293,2.0,4.0,74,0.00,,,0.00,0,Wunderground v.1.15,2013-02-06 06:35:00,
2013-02-06 01:40:00,40.2,32.6,30.03,WNW,291,4.0,4.0,74,0.00,,,0.00,0,Wunderground v.1.15,2013-02-06 06:40:00,
2013-02-06 01:45:00,40.1,32.5,30.04,WNW,289,1.0,4.0,74,0.00,,,0.00,0,Wunderground v.1.15,2013-02-06 06:45:00,
2013-02-06 01:50:00,40.2,32.6,30.04,WNW,289,1.0,1.0,74,0.00,,,0.00,0,Wunderground v.1.15,2013-02-06 06:50:00,
2013-02-06 01:56:00,40.1,32.1,30.04,WNW,285,1.0,5.0,73,0.00,,,0.00,0,Wunderground v.1.15,2013-02-06 06:56:00,
2013-02-06 02:01:00,40.2,32.6,30.05,WNW,285,1.0,2.0,74,0.00,,,0.00,0,Wunderground v.1.15,2013-02-06 07:01:00,
2013-02-06 02:06:00,40.2,32.2,30.05,WNW,286,2.0,4.0,73,0.00,,,0.00,0,Wunderground v.1.15,2013-02-06 07:06:00,
2013-02-06 02:11:00,40.1,32.5,30.05,WNW,286,1.0,2.0,74,0.00,,,0.00,0,Wunderground v.1.15,2013-02-06 07:11:00,
2013-02-06 02:16:00,40.0,32.7,30.05,West,276,1.0,3.0,75,0.00,,,0.00,0,Wunderground v.1.15,2013-02-06 07:16:00,
2013-02-06 02:21:00,40.2,32.2,30.05,WNW,284,2.0,6.0,73,0.00,,,0.00,0,Wunderground v.1.15,2013-02-06 07:21:00,
2013-02-06 02:26:00,40.1,32.5,30.05,WNW,284,1.0,6.0,74,0.00,,,0.00,0,Wunderground v.1.15,2013-02-06 07:26:00,
2013-02-06 02:32:00,40.0,32.4,30.06,WNW,286,4.0,4.0,74,0.00,,,0.00,0,Wunderground v.1.15,2013-02-06 07:32:00,
2013-02-06 02:37:00,40.0,32.4,30.06,WNW,286,0.0,4.0,74,0.00,,,0.00,0,Wunderground v.1.15,2013-02-06 07:37:00,
2013-02-06 02:42:00,40.0,32.0,30.06,WNW,285,3.0,4.0,73,0.00,,,0.00,0,Wunderground v.1.15,2013-02-06 07:42:00,
2013-02-06 02:47:00,40.1,32.1,30.06,West,281,2.0,2.0,73,0.00,,,0.00,0,Wunderground v.1.15,2013-02-06 07:47:00,
2013-02-06 02:52:00,40.1,32.1,30.07,WNW,286,1.0,4.0,73,0.00,,,0.00,0,Wunderground v.1.15,2013-02-06 07:52:00,
2013-02-06 02:57:00,40.1,32.5,30.07,WNW,286,2.0,2.0,74,0.00,,,0.00,0,Wunderground v.1.15,2013-02-06 07:57:00,
2013-02-06 03:02:00,40.1,32.5,30.07,WNW,296,1.0,5.0,74,0.00,,,0.00,0,Wunderground v.1.15,2013-02-06 08:02:00,
2013-02-06 03:07:00,40.0,33.0,30.07,WNW,301,1.0,1.0,76,0.00,,,0.00,0,Wunderground v.1.15,2013-02-06 08:07:00,
2013-02-06 03:12:00,39.8,33.2,30.07,WNW,301,1.0,2.0,77,0.00,,,0.00,0,Wunderground v.1.15,2013-02-06 08:12:00,
2013-02-06 03:18:00,39.7,32.8,30.07,WNW,301,0.0,1.0,76,0.00,,,0.00,0,Wunderground v.1.15,2013-02-06 08:18:00,
2013-02-06 03:23:00,39.7,32.4,30.07,WNW,303,1.0,5.0,75,0.00,,,0.00,0,Wunderground v.1.15,2013-02-06 08:23:00,
2013-02-06 03:28:00,39.8,32.2,30.07,WNW,298,3.0,5.0,74,0.00,,,0.00,0,Wunderground v.1.15,2013-02-06 08:28:00,
2013-02-06 03:34:00,39.8,32.5,30.07,WNW,293,3.0,6.0,75,0.00,,,0.00,0,Wunderground v.1.15,2013-02-06 08:34:00,
2013-02-06 03:40:00,39.7,32.4,30.07,NNW,337,1.0,4.0,75,0.00,,,0.00,0,Wunderground v.1.15,2013-02-06 08:40:00,
2013-02-06 03:45:00,39.7,32.4,30.08,West,279,0.0,5.0,75,0.00,,,0.00,0,Wunderground v.1.15,2013-02-06 08:45:00,
2013-02-06 03:50:00,39.6,32.3,30.07,WNW,296,1.0,2.0,75,0.00,,,0.00,0,Wunderground v.1.15,2013-02-06 08:50:00,
2013-02-06 03:55:00,39.5,32.2,30.08,NW,317,3.0,3.0,75,0.00,,,0.00,0,Wunderground v.1.15,2013-02-06 08:55:00,
2013-02-06 04:00:00,39.4,32.5,30.08,WNW,299,0.0,2.0,76,0.00,,,0.00,0,Wunderground v.1.15,2013-02-06 09:00:00,
2013-02-06 04:05:00,39.4,32.5,30.08,WNW,299,0.0,2.0,76,0.00,,,0.00,0,Wunderground v.1.15,2013-02-06 09:05:00,
2013-02-06 04:10:00,39.3,32.4,30.08,WNW,299,0.0,1.0,76,0.00,,,0.00,0,Wunderground v.1.15,2013-02-06 09:10:00,
2013-02-06 04:15:00,39.3,32.4,30.08,WNW,299,0.0,1.0,76,0.00,,,0.00,0,Wunderground v.1.15,2013-02-06 09:15:00,
2013-02-06 04:20:00,39.2,32.6,30.09,WNW,299,0.0,0.0,77,0.00,,,0.00,0,Wunderground v.1.15,2013-02-06 09:20:00,
2013-02-06 04:25:00,39.2,32.6,30.09,WNW,299,2.0,2.0,77,0.00,,,0.00,0,Wunderground v.1.15,2013-02-06 09:25:00,
2013-02-06 04:30:00,39.1,32.2,30.09,WNW,299,3.0,3.0,76,0.00,,,0.00,0,Wunderground v.1.15,2013-02-06 09:30:00,
2013-02-06 04:35:00,39.1,32.2,30.09,WNW,299,1.0,3.0,76,0.00,,,0.00,0,Wunderground v.1.15,2013-02-06 09:35:00,
2013-02-06 04:40:00,39.1,32.2,30.10,NW,314,2.0,3.0,76,0.00,,,0.00,0,Wunderground v.1.15,2013-02-06 09:40:00,
2013-02-06 04:45:00,39.0,32.1,30.10,West,259,2.0,4.0,76,0.00,,,0.00,0,Wunderground v.1.15,2013-02-06 09:45:00,
2013-02-06 04:50:00,39.0,32.1,30.10,SW,226,3.0,3.0,76,0.00,,,0.00,0,Wunderground v.1.15,2013-02-06 09:50:00,
2013-02-06 04:55:00,38.9,32.3,30.10,West,263,1.0,3.0,77,0.00,,,0.00,0,Wunderground v.1.15,2013-02-06 09:55:00,
2013-02-06 05:01:00,38.9,32.0,30.11,NW,315,2.0,3.0,76,0.00,,,0.00,0,Wunderground v.1.15,2013-02-06 10:01:00,
2013-02-06 05:06:00,38.9,32.0,30.10,WNW,293,2.0,3.0,76,0.00,,,0.00,0,Wunderground v.1.15,2013-02-06 10:06:00,
2013-02-06 05:11:00,38.8,31.9,30.11,WNW,286,3.0,3.0,76,0.00,,,0.00,0,Wunderground v.1.15,2013-02-06 10:11:00,
2013-02-06 05:16:00,38.8,32.2,30.11,WNW,286,0.0,3.0,77,0.00,,,0.00,0,Wunderground v.1.15,2013-02-06 10:16:00,
2013-02-06 05:21:00,38.7,32.1,30.12,WNW,286,2.0,3.0,77,0.00,,,0.00,0,Wunderground v.1.15,2013-02-06 10:21:00,
2013-02-06 05:26:00,38.7,32.1,30.12,WNW,286,0.0,3.0,77,0.00,,,0.00,0,Wunderground v.1.15,2013-02-06 10:26:00,
2013-02-06 05:31:00,38.6,32.3,30.12,WNW,286,0.0,0.0,78,0.00,,,0.00,0,Wunderground v.1.15,2013-02-06 10:31:00,
2013-02-06 05:36:00,38.5,32.2,30.12,WNW,286,0.0,0.0,78,0.00,,,0.00,0,Wunderground v.1.15,2013-02-06 10:36:00,
2013-02-06 05:41:00,38.5,32.6,30.12,WNW,286,0.0,0.0,79,0.00,,,0.00,0,Wunderground v.1.15,2013-02-06 10:41:00,
2013-02-06 05:46:00,38.4,32.5,30.13,WNW,286,0.0,2.0,79,0.00,,,0.00,0,Wunderground v.1.15,2013-02-06 10:46:00,
2013-02-06 05:51:00,38.4,32.5,30.12,WNW,286,0.0,0.0,79,0.00,,,0.00,0,Wunderground v.1.15,2013-02-06 10:51:00,
2013-02-06 05:56:00,38.4,32.5,30.13,WNW,286,0.0,0.0,79,0.00,,,0.00,0,Wunderground v.1.15,2013-02-06 10:56:00,
2013-02-06 06:01:00,38.3,32.4,30.13,WNW,286,0.0,0.0,79,0.00,,,0.00,0,Wunderground v.1.15,2013-02-06 11:01:00,
2013-02-06 06:07:00,38.3,32.4,30.13,WNW,286,0.0,0.0,79,0.00,,,0.00,0,Wunderground v.1.15,2013-02-06 11:07:00,
2013-02-06 06:12:00,38.3,32.0,30.13,WNW,286,0.0,0.0,78,0.00,,,0.00,0,Wunderground v.1.15,2013-02-06 11:12:00,
2013-02-06 06:17:00,38.2,31.6,30.13,WNW,286,2.0,2.0,77,0.00,,,0.00,0,Wunderground v.1.15,2013-02-06 11:17:00,
2013-02-06 06:22:00,38.1,31.5,30.13,WNW,286,1.0,1.0,77,0.00,,,0.00,0,Wunderground v.1.15,2013-02-06 11:22:00,
2013-02-06 06:27:00,38.0,31.7,30.13,WNW,286,1.0,1.0,78,0.00,,,0.00,0,Wunderground v.1.15,2013-02-06 11:27:00,
2013-02-06 06:33:00,37.9,31.7,30.14,WNW,286,0.0,2.0,78,0.00,,,0.00,0,Wunderground v.1.15,2013-02-06 11:33:00,
2013-02-06 06:38:00,37.8,31.6,30.14,WNW,286,0.0,3.0,78,0.00,,,0.00,0,Wunderground v.1.15,2013-02-06 11:38:00,
2013-02-06 06:43:00,37.7,31.8,30.14,WNW,286,0.0,0.0,79,0.00,,,0.00,0,Wunderground v.1.15,2013-02-06 11:43:00,
2013-02-06 06:48:00,37.6,31.7,30.14,WNW,286,0.0,0.0,79,0.00,,,0.00,0,Wunderground v.1.15,2013-02-06 11:48:00,
2013-02-06 06:53:00,37.5,31.6,30.14,WNW,286,0.0,0.0,79,0.00,,,0.00,0,Wunderground v.1.15,2013-02-06 11:53:00,
2013-02-06 06:58:00,37.4,31.5,30.14,WNW,286,1.0,1.0,79,0.00,,,0.00,0,Wunderground v.1.15,2013-02-06 11:58:00,
2013-02-06 07:04:00,37.4,31.5,30.15,WNW,286,0.0,2.0,79,0.00,,,0.00,0,Wunderground v.1.15,2013-02-06 12:04:00,
2013-02-06 07:09:00,37.4,31.5,30.15,WNW,286,0.0,2.0,79,0.00,,,0.00,0,Wunderground v.1.15,2013-02-06 12:09:00,
2013-02-06 07:14:00,37.5,31.3,30.16,WNW,287,0.0,4.0,78,0.00,,,0.00,0,Wunderground v.1.15,2013-02-06 12:14:00,
2013-02-06 07:20:00,37.5,31.3,30.15,WNW,287,0.0,0.0,78,0.00,,,0.00,0,Wunderground v.1.15,2013-02-06 12:20:00,
2013-02-06 07:25:00,37.4,31.2,30.15,WNW,287,0.0,1.0,78,0.00,,,0.00,0,Wunderground v.1.15,2013-02-06 12:25:00,
2013-02-06 07:31:00,37.3,31.4,30.15,WNW,287,0.0,0.0,79,0.00,,,0.00,0,Wunderground v.1.15,2013-02-06 12:31:00,
2013-02-06 07:36:00,37.2,31.3,30.15,WNW,287,0.0,1.0,79,0.00,,,0.00,0,Wunderground v.1.15,2013-02-06 12:36:00,
2013-02-06 07:41:00,37.2,31.0,30.16,WNW,287,1.0,1.0,78,0.00,,,0.00,0,Wunderground v.1.15,2013-02-06 12:41:00,
2013-02-06 07:46:00,37.2,31.3,30.16,NNW,330,1.0,2.0,79,0.00,,,0.00,0,Wunderground v.1.15,2013-02-06 12:46:00,
2013-02-06 07:51:00,37.2,31.0,30.16,NNW,330,0.0,3.0,78,0.00,,,0.00,0,Wunderground v.1.15,2013-02-06 12:51:00,
2013-02-06 07:56:00,37.1,30.9,30.16,NNW,330,2.0,3.0,78,0.00,,,0.00,0,Wunderground v.1.15,2013-02-06 12:56:00,
2013-02-06 08:01:00,37.2,30.7,30.17,North,350,3.0,3.0,77,0.00,,,0.00,0,Wunderground v.1.15,2013-02-06 13:01:00,
2013-02-06 08:06:00,37.3,31.1,30.17,NNW,346,4.0,4.0,78,0.00,,,0.00,0,Wunderground v.1.15,2013-02-06 13:06:00,
2013-02-06 08:11:00,37.3,30.7,30.17,NNW,340,2.0,3.0,77,0.00,,,0.00,0,Wunderground v.1.15,2013-02-06 13:11:00,
2013-02-06 08:17:00,37.4,30.5,30.17,NNW,341,2.0,3.0,76,0.00,,,0.00,0,Wunderground v.1.15,2013-02-06 13:17:00,
2013-02-06 08:22:00,37.4,30.8,30.17,NNW,341,2.0,2.0,77,0.00,,,0.00,0,Wunderground v.1.15,2013-02-06 13:22:00,
2013-02-06 08:27:00,37.5,30.6,30.18,NNW,341,1.0,2.0,76,0.00,,,0.00,0,Wunderground v.1.15,2013-02-06 13:27:00,
2013-02-06 08:33:00,37.6,30.7,30.18,NNW,341,1.0,2.0,76,0.00,,,0.00,0,Wunderground v.1.15,2013-02-06 13:33:00,
2013-02-06 08:38:00,37.7,30.5,30.18,NNW,341,0.0,2.0,75,0.00,,,0.00,0,Wunderground v.1.15,2013-02-06 13:38:00,
2013-02-06 08:43:00,37.9,30.4,30.18,NNW,332,3.0,3.0,74,0.00,,,0.00,0,Wunderground v.1.15,2013-02-06 13:43:00,
2013-02-06 08:48:00,38.0,30.1,30.18,NNW,327,2.0,4.0,73,0.00,,,0.00,0,Wunderground v.1.15,2013-02-06 13:48:00,
2013-02-06 08:53:00,38.1,30.2,30.18,NNW,327,1.0,3.0,73,0.00,,,0.00,0,Wunderground v.1.15,2013-02-06 13:53:00,
2013-02-06 08:58:00,38.3,30.1,30.19,North,353,1.0,3.0,72,0.00,,,0.00,0,Wunderground v.1.15,2013-02-06 13:58:00,
2013-02-06 09:03:00,38.4,30.2,30.20,North,353,0.0,2.0,72,0.00,,,0.00,0,Wunderground v.1.15,2013-02-06 14:03:00,
2013-02-06 09:08:00,38.6,30.0,30.20,North,353,1.0,3.0,71,0.00,,,0.00,0,Wunderground v.1.15,2013-02-06 14:08:00,
2013-02-06 09:13:00,38.8,30.2,30.20,North,353,0.0,2.0,71,0.00,,,0.00,0,Wunderground v.1.15,2013-02-06 14:13:00,
2013-02-06 09:18:00,38.9,29.9,30.20,North,353,1.0,2.0,70,0.00,,,0.00,0,Wunderground v.1.15,2013-02-06 14:18:00,
2013-02-06 09:23:00,39.1,30.1,30.20,North,352,3.0,3.0,70,0.00,,,0.00,0,Wunderground v.1.15,2013-02-06 14:23:00,
2013-02-06 09:28:00,39.2,30.6,30.21,NW,317,2.0,3.0,71,0.00,,,0.00,0,Wunderground v.1.15,2013-02-06 14:28:00,
2013-02-06 09:33:00,39.3,30.3,30.21,NW,317,2.0,3.0,70,0.00,,,0.00,0,Wunderground v.1.15,2013-02-06 14:33:00,
2013-02-06 09:38:00,39.4,30.4,30.21,NW,317,2.0,2.0,70,0.00,,,0.00,0,Wunderground v.1.15,2013-02-06 14:38:00,
2013-02-06 09:43:00,39.3,30.3,30.21,WNW,286,1.0,4.0,70,0.00,,,0.00,0,Wunderground v.1.15,2013-02-06 14:43:00,
2013-02-06 09:48:00,39.4,30.1,30.21,WNW,286,0.0,1.0,69,0.00,,,0.00,0,Wunderground v.1.15,2013-02-06 14:48:00,
2013-02-06 09:53:00,39.6,29.9,30.22,WNW,287,3.0,4.0,68,0.00,,,0.00,0,Wunderground v.1.15,2013-02-06 14:53:00,
2013-02-06 09:58:00,39.7,29.6,30.22,WNW,286,0.0,1.0,67,0.00,,,0.00,0,Wunderground v.1.15,2013-02-06 14:58:00,
2013-02-06 10:03:00,39.9,29.5,30.22,WNW,287,2.0,2.0,66,0.00,,,0.00,0,Wunderground v.1.15,2013-02-06 15:03:00,
2013-02-06 10:08:00,40.1,29.6,30.21,WNW,298,0.0,0.0,66,0.00,,,0.00,0,Wunderground v.1.15,2013-02-06 15:08:00,
2013-02-06 10:13:00,40.6,29.4,30.20,WNW,297,0.0,4.0,64,0.00,,,0.00,0,Wunderground v.1.15,2013-02-06 15:13:00,
2013-02-06 10:18:00,41.0,29.0,30.21,WNW,296,3.0,3.0,62,0.00,,,0.00,0,Wunderground v.1.15,2013-02-06 15:18:00,
2013-02-06 10:24:00,40.9,30.0,30.22,WNW,296,0.0,3.0,65,0.00,,,0.00,0,Wunderground v.1.15,2013-02-06 15:24:00,
2013-02-06 10:29:00,41.0,29.4,30.22,WNW,296,3.0,3.0,63,0.00,,,0.00,0,Wunderground v.1.15,2013-02-06 15:29:00,
2013-02-06 10:34:00,41.2,29.2,30.22,WNW,282,2.0,4.0,62,0.00,,,0.00,0,Wunderground v.1.15,2013-02-06 15:34:00,
2013-02-06 10:39:00,41.1,29.8,30.22,WNW,287,1.0,1.0,64,0.00,,,0.00,0,Wunderground v.1.15,2013-02-06 15:39:00,
2013-02-06 10:44:00,41.3,29.3,30.22,West,281,1.0,4.0,62,0.00,,,0.00,0,Wunderground v.1.15,2013-02-06 15:44:00,
2013-02-06 10:50:00,41.4,30.1,30.22,SSW,198,0.0,2.0,64,0.00,,,0.00,0,Wunderground v.1.15,2013-02-06 15:50:00,
2013-02-06 10:55:00,41.7,30.4,30.22,West,277,4.0,4.0,64,0.00,,,0.00,0,Wunderground v.1.15,2013-02-06 15:55:00,
2013-02-06 11:00:00,41.7,29.6,30.22,WNW,301,3.0,4.0,62,0.00,,,0.00,0,Wunderground v.1.15,2013-02-06 16:00:00,
2013-02-06 11:05:00,41.9,29.4,30.22,WNW,296,0.0,4.0,61,0.00,,,0.00,0,Wunderground v.1.15,2013-02-06 16:05:00,
2013-02-06 11:10:00,42.3,29.8,30.22,WNW,292,0.0,3.0,61,0.00,,,0.00,0,Wunderground v.1.15,2013-02-06 16:10:00,
2013-02-06 11:15:00,43.3,31.1,30.22,South,189,0.0,3.0,62,0.00,,,0.00,0,Wunderground v.1.15,2013-02-06 16:15:00,
2013-02-06 11:20:00,44.4,31.4,30.23,WSW,250,2.0,2.0,60,0.00,,,0.00,0,Wunderground v.1.15,2013-02-06 16:20:00,
2013-02-06 11:25:00,44.5,29.8,30.22,WSW,245,2.0,2.0,56,0.00,,,0.00,0,Wunderground v.1.15,2013-02-06 16:25:00,
2013-02-06 11:30:00,44.2,30.3,30.23,WNW,283,1.0,3.0,58,0.00,,,0.00,0,Wunderground v.1.15,2013-02-06 16:30:00,
2013-02-06 11:35:00,44.9,31.0,30.23,South,187,1.0,3.0,58,0.00,,,0.00,0,Wunderground v.1.15,2013-02-06 16:35:00,
2013-02-06 11:40:00,45.7,32.2,30.23,SW,229,0.0,2.0,59,0.00,,,0.00,0,Wunderground v.1.15,2013-02-06 16:40:00,
2013-02-06 11:45:00,45.3,30.5,30.23,West,270,0.0,3.0,56,0.00,,,0.00,0,Wunderground v.1.15,2013-02-06 16:45:00,
2013-02-06 11:50:00,44.8,30.9,30.23,West,269,1.0,2.0,58,0.00,,,0.00,0,Wunderground v.1.15,2013-02-06 16:50:00,
2013-02-06 11:55:00,45.2,30.4,30.22,West,269,0.0,2.0,56,0.00,,,0.00,0,Wunderground v.1.15,2013-02-06 16:55:00,
2013-02-06 12:01:00,45.2,30.4,30.23,WNW,287,2.0,2.0,56,0.00,,,0.00,0,Wunderground v.1.15,2013-02-06 17:01:00,
2013-02-06 12:06:00,43.9,29.2,30.23,WNW,294,1.0,4.0,56,0.00,,,0.00,0,Wunderground v.1.15,2013-02-06 17:06:00,
2013-02-06 12:11:00,43.1,29.7,30.23,WNW,294,2.0,2.0,59,0.00,,,0.00,0,Wunderground v.1.15,2013-02-06 17:11:00,
2013-02-06 12:16:00,42.6,28.8,30.22,WNW,295,1.0,3.0,58,0.00,,,0.00,0,Wunderground v.1.15,2013-02-06 17:16:00,
2013-02-06 12:21:00,43.3,29.1,30.23,WNW,295,1.0,2.0,57,0.00,,,0.00,0,Wunderground v.1.15,2013-02-06 17:21:00,
2013-02-06 12:26:00,43.4,29.2,30.23,WNW,296,2.0,4.0,57,0.00,,,0.00,0,Wunderground v.1.15,2013-02-06 17:26:00,
2013-02-06 12:31:00,44.3,29.6,30.23,WNW,294,2.0,2.0,56,0.00,,,0.00,0,Wunderground v.1.15,2013-02-06 17:31:00,
2013-02-06 12:36:00,45.5,30.7,30.22,SSE,166,2.0,5.0,56,0.00,,,0.00,0,Wunderground v.1.15,2013-02-06 17:36:00,
2013-02-06 12:41:00,45.6,29.4,30.22,WNW,290,2.0,6.0,53,0.00,,,0.00,0,Wunderground v.1.15,2013-02-06 17:41:00,
2013-02-06 12:48:00,45.5,30.7,30.22,NNW,344,1.0,6.0,56,0.00,,,0.00,0,Wunderground v.1.15,2013-02-06 17:48:00,
2013-02-06 12:53:00,45.7,31.3,30.22,SSE,164,1.0,4.0,57,0.00,,,0.00,0,Wunderground v.1.15,2013-02-06 17:53:00,
2013-02-06 12:58:00,45.6,29.9,30.22,WNW,283,1.0,7.0,54,0.00,,,0.00,0,Wunderground v.1.15,2013-02-06 17:58:00,
2013-02-06 13:03:00,45.8,30.5,30.22,ENE,78,1.0,5.0,55,0.00,,,0.00,0,Wunderground v.1.15,2013-02-06 18:03:00,
2013-02-06 13:08:00,45.6,29.9,30.22,West,278,4.0,7.0,54,0.00,,,0.00,0,Wunderground v.1.15,2013-02-06 18:08:00,
2013-02-06 13:13:00,45.5,31.6,30.22,WNW,300,3.0,5.0,58,0.00,,,0.00,0,Wunderground v.1.15,2013-02-06 18:13:00,
2013-02-06 13:18:00,45.1,29.9,30.22,NNW,327,1.0,6.0,55,0.00,,,0.00,0,Wunderground v.1.15,2013-02-06 18:18:00,
2013-02-06 13:23:00,45.1,30.3,30.21,WNW,291,2.0,5.0,56,0.00,,,0.00,0,Wunderground v.1.15,2013-02-06 18:23:00,
2013-02-06 13:28:00,45.1,29.9,30.21,NNW,339,3.0,5.0,55,0.00,,,0.00,0,Wunderground v.1.15,2013-02-06 18:28:00,
2013-02-06 13:33:00,45.2,30.9,30.22,NW,307,2.0,5.0,57,0.00,,,0.00,0,Wunderground v.1.15,2013-02-06 18:33:00,
2013-02-06 13:38:00,44.8,29.6,30.22,WNW,302,3.0,3.0,55,0.00,,,0.00,0,Wunderground v.1.15,2013-02-06 18:38:00,
2013-02-06 13:43:00,45.1,29.9,30.22,NW,308,5.0,6.0,55,0.00,,,0.00,0,Wunderground v.1.15,2013-02-06 18:43:00,
2013-02-06 13:49:00,44.9,29.2,30.22,NW,311,4.0,4.0,54,0.00,,,0.00,0,Wunderground v.1.15,2013-02-06 18:49:00,
2013-02-06 13:54:00,44.7,29.5,30.21,NNW,332,3.0,4.0,55,0.00,,,0.00,0,Wunderground v.1.15,2013-02-06 18:54:00,
2013-02-06 13:59:00,45.1,31.2,30.21,NW,322,3.0,5.0,58,0.00,,,0.00,0,Wunderground v.1.15,2013-02-06 18:59:00,
2013-02-06 14:05:00,44.8,29.2,30.21,NNW,341,1.0,5.0,54,0.00,,,0.00,0,Wunderground v.1.15,2013-02-06 19:05:00,
2013-02-06 14:11:00,45.1,29.4,30.20,WNW,298,2.0,3.0,54,0.00,,,0.00,0,Wunderground v.1.15,2013-02-06 19:11:00,
2013-02-06 14:16:00,44.8,29.2,30.20,NW,306,0.0,3.0,54,0.00,,,0.00,0,Wunderground v.1.15,2013-02-06 19:16:00,
2013-02-06 14:21:00,44.9,29.2,30.20,WNW,293,2.0,3.0,54,0.00,,,0.00,0,Wunderground v.1.15,2013-02-06 19:21:00,
2013-02-06 14:26:00,45.2,30.0,30.20,NW,309,1.0,3.0,55,0.00,,,0.00,0,Wunderground v.1.15,2013-02-06 19:26:00,
2013-02-06 14:31:00,45.4,29.7,30.20,WNW,290,4.0,5.0,54,0.00,,,0.00,0,Wunderground v.1.15,2013-02-06 19:31:00,
2013-02-06 14:36:00,45.6,29.9,30.20,NW,307,2.0,5.0,54,0.00,,,0.00,0,Wunderground v.1.15,2013-02-06 19:36:00,
2013-02-06 14:42:00,45.7,29.5,30.20,WNW,299,1.0,4.0,53,0.00,,,0.00,0,Wunderground v.1.15,2013-02-06 19:42:00,
2013-02-06 14:47:00,45.8,29.6,30.21,WNW,302,3.0,6.0,53,0.00,,,0.00,0,Wunderground v.1.15,2013-02-06 19:47:00,
2013-02-06 14:52:00,45.9,29.2,30.20,WNW,289,0.0,6.0,52,0.00,,,0.00,0,Wunderground v.1.15,2013-02-06 19:52:00,
2013-02-06 14:57:00,45.8,29.6,30.20,WNW,291,2.0,6.0,53,0.00,,,0.00,0,Wunderground v.1.15,2013-02-06 19:57:00,
2013-02-06 15:03:00,45.8,30.1,30.20,WNW,295,3.0,5.0,54,0.00,,,0.00,0,Wunderground v.1.15,2013-02-06 20:03:00,
2013-02-06 15:08:00,46.2,30.5,30.20,NW,309,3.0,5.0,54,0.00,,,0.00,0,Wunderground v.1.15,2013-02-06 20:08:00,
2013-02-06 15:13:00,46.2,29.5,30.20,West,263,3.0,3.0,52,0.00,,,0.00,0,Wunderground v.1.15,2013-02-06 20:13:00,
2013-02-06 15:18:00,46.3,29.1,30.20,West,272,2.0,4.0,51,0.00,,,0.00,0,Wunderground v.1.15,2013-02-06 20:18:00,
2013-02-06 15:23:00,46.3,29.1,30.20,WNW,302,0.0,3.0,51,0.00,,,0.00,0,Wunderground v.1.15,2013-02-06 20:23:00,
2013-02-06 15:28:00,46.5,30.3,30.21,SW,232,3.0,3.0,53,0.00,,,0.00,0,Wunderground v.1.15,2013-02-06 20:28:00,
2013-02-06 15:33:00,46.5,29.8,30.21,SW,232,3.0,3.0,52,0.00,,,0.00,0,Wunderground v.1.15,2013-02-06 20:33:00,
2013-02-06 15:38:00,46.6,30.4,30.21,WSW,242,3.0,3.0,53,0.00,,,0.00,0,Wunderground v.1.15,2013-02-06 20:38:00,
2013-02-06 15:43:00,46.8,30.6,30.21,South,182,1.0,4.0,53,0.00,,,0.00,0,Wunderground v.1.15,2013-02-06 20:43:00,
2013-02-06 15:48:00,47.1,29.9,30.21,South,182,0.0,4.0,51,0.00,,,0.00,0,Wunderground v.1.15,2013-02-06 20:48:00,
2013-02-06 15:53:00,47.0,30.7,30.21,South,182,0.0,5.0,53,0.00,,,0.00,0,Wunderground v.1.15,2013-02-06 20:53:00,
2013-02-06 15:58:00,47.0,29.3,30.21,WNW,285,3.0,5.0,50,0.00,,,0.00,0,Wunderground v.1.15,2013-02-06 20:58:00,
2013-02-06 16:03:00,46.9,29.7,30.21,WNW,285,0.0,4.0,51,0.00,,,0.00,0,Wunderground v.1.15,2013-02-06 21:03:00,
2013-02-06 16:08:00,46.8,29.6,30.21,WNW,285,2.0,4.0,51,0.00,,,0.00,0,Wunderground v.1.15,2013-02-06 21:08:00,
2013-02-06 16:13:00,46.5,29.8,30.22,WNW,291,3.0,3.0,52,0.00,,,0.00,0,Wunderground v.1.15,2013-02-06 21:13:00,
2013-02-06 16:18:00,46.4,29.7,30.22,West,274,0.0,5.0,52,0.00,,,0.00,0,Wunderground v.1.15,2013-02-06 21:18:00,
2013-02-06 16:23:00,46.3,30.1,30.21,West,279,1.0,3.0,53,0.00,,,0.00,0,Wunderground v.1.15,2013-02-06 21:23:00,
2013-02-06 16:28:00,46.3,29.6,30.21,West,279,0.0,3.0,52,0.00,,,0.00,0,Wunderground v.1.15,2013-02-06 21:28:00,
2013-02-06 16:34:00,46.2,29.5,30.21,WNW,293,1.0,3.0,52,0.00,,,0.00,0,Wunderground v.1.15,2013-02-06 21:34:00,
2013-02-06 16:39:00,46.0,29.3,30.21,WNW,293,1.0,3.0,52,0.00,,,0.00,0,Wunderground v.1.15,2013-02-06 21:39:00,
2013-02-06 16:44:00,45.7,29.5,30.21,WNW,293,0.0,2.0,53,0.00,,,0.00,0,Wunderground v.1.15,2013-02-06 21:44:00,
2013-02-06 16:49:00,45.6,29.4,30.21,WNW,293,1.0,2.0,53,0.00,,,0.00,0,Wunderground v.1.15,2013-02-06 21:49:00,
2013-02-06 16:54:00,45.4,29.3,30.21,WNW,293,2.0,3.0,53,0.00,,,0.00,0,Wunderground v.1.15,2013-02-06 21:54:00,
2013-02-06 16:59:00,45.3,29.2,30.22,WNW,293,0.0,3.0,53,0.00,,,0.00,0,Wunderground v.1.15,2013-02-06 21:59:00,
2013-02-06 17:04:00,45.1,29.4,30.21,WNW,293,0.0,1.0,54,0.00,,,0.00,0,Wunderground v.1.15,2013-02-06 22:04:00,
2013-02-06 17:09:00,44.8,29.2,30.21,WNW,293,1.0,2.0,54,0.00,,,0.00,0,Wunderground v.1.15,2013-02-06 22:09:00,
2013-02-06 17:14:00,44.7,29.5,30.22,WNW,293,0.0,2.0,55,0.00,,,0.00,0,Wunderground v.1.15,2013-02-06 22:14:00,
2013-02-06 17:19:00,44.6,29.0,30.22,WNW,293,0.0,2.0,54,0.00,,,0.00,0,Wunderground v.1.15,2013-02-06 22:19:00,
2013-02-06 17:24:00,44.4,30.1,30.21,NE,50,2.0,3.0,57,0.00,,,0.00,0,Wunderground v.1.15,2013-02-06 22:24:00,
2013-02-06 17:29:00,44.1,30.3,30.22,ENE,72,2.0,3.0,58,0.00,,,0.00,0,Wunderground v.1.15,2013-02-06 22:29:00,
2013-02-06 17:34:00,43.8,30.4,30.22,East,82,1.0,3.0,59,0.00,,,0.00,0,Wunderground v.1.15,2013-02-06 22:34:00,
2013-02-06 17:39:00,43.4,30.8,30.22,NNE,26,1.0,3.0,61,0.00,,,0.00,0,Wunderground v.1.15,2013-02-06 22:39:00,
2013-02-06 17:44:00,42.9,30.8,30.22,NNE,26,0.0,3.0,62,0.00,,,0.00,0,Wunderground v.1.15,2013-02-06 22:44:00,
2013-02-06 17:49:00,42.6,30.5,30.22,ENE,68,0.0,3.0,62,0.00,,,0.00,0,Wunderground v.1.15,2013-02-06 22:49:00,
2013-02-06 17:54:00,42.2,30.5,30.22,NE,39,1.0,1.0,63,0.00,,,0.00,0,Wunderground v.1.15,2013-02-06 22:54:00,
2013-02-06 17:59:00,41.9,30.6,30.22,NE,52,1.0,1.0,64,0.00,,,0.00,0,Wunderground v.1.15,2013-02-06 22:59:00,
2013-02-06 18:04:00,41.6,30.3,30.22,NE,49,0.0,2.0,64,0.00,,,0.00,0,Wunderground v.1.15,2013-02-06 23:04:00,
2013-02-06 18:09:00,41.4,30.5,30.22,ENE,76,2.0,2.0,65,0.00,,,0.00,0,Wunderground v.1.15,2013-02-06 23:09:00,
2013-02-06 18:14:00,41.2,30.3,30.22,East,83,2.0,4.0,65,0.00,,,0.00,0,Wunderground v.1.15,2013-02-06 23:14:00,
2013-02-06 18:19:00,41.0,30.5,30.22,ENE,71,1.0,4.0,66,0.00,,,0.00,0,Wunderground v.1.15,2013-02-06 23:19:00,
2013-02-06 18:25:00,40.8,30.7,30.23,East,84,2.0,3.0,67,0.00,,,0.00,0,Wunderground v.1.15,2013-02-06 23:25:00,
2013-02-06 18:30:00,40.4,30.7,30.23,East,84,0.0,0.0,68,0.00,,,0.00,0,Wunderground v.1.15,2013-02-06 23:30:00,
2013-02-06 18:35:00,40.0,30.3,30.23,East,84,1.0,2.0,68,0.00,,,0.00,0,Wunderground v.1.15,2013-02-06 23:35:00,
2013-02-06 18:40:00,39.7,30.7,30.23,East,84,2.0,2.0,70,0.00,,,0.00,0,Wunderground v.1.15,2013-02-06 23:40:00,
2013-02-06 18:45:00,39.5,30.5,30.23,NNE,30,0.0,3.0,70,0.00,,,0.00,0,Wunderground v.1.15,2013-02-06 23:45:00,
2013-02-06 18:51:00,39.2,30.2,30.23,NNE,23,0.0,1.0,70,0.00,,,0.00,0,Wunderground v.1.15,2013-02-06 23:51:00,
2013-02-06 18:56:00,39.0,30.0,30.23,NNE,31,2.0,2.0,70,0.00,,,0.00,0,Wunderground v.1.15,2013-02-06 23:56:00,
2013-02-06 19:01:00,38.9,29.9,30.24,ENE,78,2.0,3.0,70,0.00,,,0.00,0,Wunderground v.1.15,2013-02-07 00:01:00,
2013-02-06 19:06:00,38.9,29.9,30.23,East,80,2.0,4.0,70,0.00,,,0.00,0,Wunderground v.1.15,2013-02-07 00:06:00,
2013-02-06 19:12:00,38.9,29.9,30.23,NE,50,2.0,5.0,70,0.00,,,0.00,0,Wunderground v.1.15,2013-02-07 00:12:00,
2013-02-06 19:17:00,38.8,29.8,30.23,ENE,67,4.0,5.0,70,0.00,,,0.00,0,Wunderground v.1.15,2013-02-07 00:17:00,
2013-02-06 19:22:00,38.6,30.0,30.23,East,80,1.0,4.0,71,0.00,,,0.00,0,Wunderground v.1.15,2013-02-07 00:22:00,
2013-02-06 19:27:00,38.4,29.8,30.23,ENE,61,2.0,5.0,71,0.00,,,0.00,0,Wunderground v.1.15,2013-02-07 00:27:00,
2013-02-06 19:32:00,38.3,29.7,30.23,ENE,61,2.0,5.0,71,0.00,,,0.00,0,Wunderground v.1.15,2013-02-07 00:32:00,
2013-02-06 19:37:00,38.2,29.6,30.23,ENE,67,2.0,5.0,71,0.00,,,0.00,0,Wunderground v.1.15,2013-02-07 00:37:00,
2013-02-06 19:42:00,38.0,29.8,30.23,ENE,77,0.0,3.0,72,0.00,,,0.00,0,Wunderground v.1.15,2013-02-07 00:42:00,
2013-02-06 19:47:00,37.8,29.6,30.23,East,81,2.0,4.0,72,0.00,,,0.00,0,Wunderground v.1.15,2013-02-07 00:47:00,
2013-02-06 19:52:00,37.6,29.7,30.23,ENE,63,3.0,3.0,73,0.00,,,0.00,0,Wunderground v.1.15,2013-02-07 00:52:00,
2013-02-06 19:57:00,37.3,29.4,30.23,East,86,1.0,4.0,73,0.00,,,0.00,0,Wunderground v.1.15,2013-02-07 00:57:00,
2013-02-06 20:02:00,37.1,29.6,30.22,ENE,70,2.0,4.0,74,0.00,,,0.00,0,Wunderground v.1.15,2013-02-07 01:02:00,
2013-02-06 20:07:00,37.0,29.8,30.23,ENE,70,0.0,4.0,75,0.00,,,0.00,0,Wunderground v.1.15,2013-02-07 01:07:00,
2013-02-06 20:16:00,36.6,29.4,30.23,NE,54,3.0,3.0,75,0.00,,,0.00,0,Wunderground v.1.15,2013-02-07 01:16:00,
2013-02-06 20:21:00,36.5,29.3,30.23,East,88,1.0,2.0,75,0.00,,,0.00,0,Wunderground v.1.15,2013-02-07 01:21:00,
2013-02-06 20:26:00,36.4,29.2,30.23,East,86,2.0,4.0,75,0.00,,,0.00,0,Wunderground v.1.15,2013-02-07 01:26:00,
2013-02-06 20:31:00,36.3,29.1,30.24,ENE,72,3.0,3.0,75,0.00,,,0.00,0,Wunderground v.1.15,2013-02-07 01:31:00,
2013-02-06 21:52:00,34.4,28.2,30.23,East,81,1.0,1.0,78,0.00,,,0.00,0,Wunderground v.1.15,2013-02-07 02:52:00,
2013-02-06 21:57:00,34.3,28.2,30.23,East,80,2.0,3.0,78,0.00,,,0.00,0,Wunderground v.1.15,2013-02-07 02:57:00,
2013-02-06 22:04:00,34.1,28.3,30.24,East,91,2.0,2.0,79,0.00,,,0.00,0,Wunderground v.1.15,2013-02-07 03:04:00,
2013-02-06 22:09:00,34.0,28.5,30.23,ENE,71,3.0,3.0,80,0.00,,,0.00,0,Wunderground v.1.15,2013-02-07 03:09:00,
2013-02-06 22:14:00,33.9,28.4,30.23,East,81,3.0,4.0,80,0.00,,,0.00,0,Wunderground v.1.15,2013-02-07 03:14:00,
2013-02-06 22:19:00,33.9,28.1,30.23,East,83,1.0,1.0,79,0.00,,,0.00,0,Wunderground v.1.15,2013-02-07 03:19:00,
2013-02-06 22:32:00,33.8,28.3,30.23,East,79,1.0,1.0,80,0.00,,,0.00,0,Wunderground v.1.15,2013-02-07 03:32:00,
2013-02-06 22:37:00,33.6,28.1,30.23,ENE,78,1.0,2.0,80,0.00,,,0.00,0,Wunderground v.1.15,2013-02-07 03:37:00,
2013-02-06 22:42:00,33.5,28.0,30.23,East,79,1.0,1.0,80,0.00,,,0.00,0,Wunderground v.1.15,2013-02-07 03:42:00,
2013-02-06 22:47:00,33.5,28.0,30.24,East,79,0.0,2.0,80,0.00,,,0.00,0,Wunderground v.1.15,2013-02-07 03:47:00,
2013-02-06 22:52:00,33.5,28.3,30.24,East,79,0.0,0.0,81,0.00,,,0.00,0,Wunderground v.1.15,2013-02-07 03:52:00,
2013-02-06 22:57:00,33.4,28.2,30.24,East,80,0.0,2.0,81,0.00,,,0.00,0,Wunderground v.1.15,2013-02-07 03:57:00,
2013-02-06 23:02:00,33.3,28.1,30.25,East,79,0.0,0.0,81,0.00,,,0.00,0,Wunderground v.1.15,2013-02-07 04:02:00,
2013-02-06 23:07:00,33.2,28.0,30.25,East,79,1.0,2.0,81,0.00,,,0.00,0,Wunderground v.1.15,2013-02-07 04:07:00,
2013-02-06 23:12:00,33.2,28.0,30.25,East,80,0.0,2.0,81,0.00,,,0.00,0,Wunderground v.1.15,2013-02-07 04:12:00,
2013-02-06 23:17:00,33.2,28.3,30.25,East,79,1.0,2.0,82,0.00,,,0.00,0,Wunderground v.1.15,2013-02-07 04:17:00,
2013-02-06 23:22:00,33.3,28.1,30.25,East,79,1.0,2.0,81,0.00,,,0.00,0,Wunderground v.1.15,2013-02-07 04:22:00,
2013-02-06 23:28:00,33.3,28.1,30.25,East,80,2.0,3.0,81,0.00,,,0.00,0,Wunderground v.1.15,2013-02-07 04:28:00,
2013-02-06 23:33:00,33.3,28.1,30.24,East,79,1.0,2.0,81,0.00,,,0.00,0,Wunderground v.1.15,2013-02-07 04:33:00,
2013-02-06 23:38:00,33.1,28.5,30.24,East,79,0.0,2.0,83,0.00,,,0.00,0,Wunderground v.1.15,2013-02-07 04:38:00,
2013-02-06 23:43:00,33.0,28.4,30.24,East,79,0.0,1.0,83,0.00,,,0.00,0,Wunderground v.1.15,2013-02-07 04:43:00,
2013-02-06 23:48:00,33.0,28.1,30.23,East,79,1.0,1.0,82,0.00,,,0.00,0,Wunderground v.1.15,2013-02-07 04:48:00,
2013-02-06 23:53:00,33.1,28.5,30.23,East,79,2.0,2.0,83,0.00,,,0.00,0,Wunderground v.1.15,2013-02-07 04:53:00,
2013-02-06 23:58:00,33.0,28.1,30.23,East,79,1.0,2.0,82,0.00,,,0.00,0,Wunderground v.1.15,2013-02-07 04:58:00,